GFSFLT1_prec_cloud_051.txt.gz
Cloud_Cover
41 81 100 100 100 100 100 100 100 100 100 100 100 100 100 100 100 100 100 100 100 88 66 90 99 83 96 94 100 81 93 98
22 94 79 100 93 100 100 100 100 100 100 100 100 100 100 100 100 100 100 100 100 100 100 100 95 100 94 94 94 99 90 100
55 100 61 85 78 100 100 100 100 100 100 100 100 100 100 100 100 100 100 100 100 100 90 100 87 96 80 100 99 64 74 77
99 84 87 32 74 99 100 100 100 100 100 100 100 100 100 100 100 100 100 100 100 100 100 100 92 100 94 98 98 71 74 98
8 77 72 57 15 76 100 100 100 100 100 100 100 100 100 100 100 100 100 100 100 100 100 100 100 100 100 100 100 100 87 49
0 0 0 18 53 44 92 100 100 100 100 100 100 100 100 100 100 100 100 100 100 100 100 100 100 100 100 100 100 100 100 98
0 0 0 1 54 100 96 96 100 100 100 100 100 100 100 100 100 100 100 100 100 100 100 100 100 100 100 100 100 100 76 64
0 0 11 15 98 100 100 98 43 67 91 100 100 100 100 100 100 100 100 100 100 100 100 100 100 100 100 100 100 100 57 88
3 0 0 6 74 100 100 98 60 26 30 26 97 100 100 100 100 100 100 100 100 100 100 100 100 100 100 100 100 58 49 38
5 0 0 0 1 5 31 18 20 36 20 4 8 59 100 100 100 100 100 100 100 100 100 100 100 100 100 96 55 46 39 67
5 2 0 3 2 3 3 0 0 0 1 0 0 16 73 54 95 100 100 100 99 96 97 100 100 98 100 100 98 100 68 99
4 4 4 5 5 5 5 0 0 0 0 0 0 0 2 51 100 83 100 98 99 100 94 97 88 100 100 99 100 95 94 100
4 5 33 5 5 5 5 5 0 2 2 0 1 2 4 67 83 23 46 98 92 100 100 100 100 100 100 100 100 100 100 100
56 70 82 100 7 5 5 5 5 3 1 3 1 2 81 100 100 98 96 37 8 99 75 69 99 99 100 100 100 100 100 100
100 100 100 100 84 55 5 5 5 5 4 0 0 0 1 49 96 100 91 95 100 100 86 84 63 86 84 100 100 100 94 100
100 100 100 100 99 92 33 5 5 5 5 5 5 0 0 0 2 74 98 91 100 100 100 100 98 84 90 97 100 100 100 99
100 100 100 100 100 100 100 53 6 5 5 5 5 5 5 0 0 0 0 0 6 93 100 100 100 100 100 100 100 100 100 100
100 100 100 100 100 100 100 88 100 58 33 98 26 5 11 6 31 5 5 3 29 64 89 98 100 100 100 100 100 100 100 100
100 95 100 100 100 100 100 100 47 98 39 99 100 97 67 27 48 46 72 98 100 98 100 100 100 100 100 100 100 100 100 100

GFSFLT1_prec_cloud_054.txt.gz
Cloud_Cover
0 23 22 58 100 100 100 100 100 100 100 100 100 100 100 100 100 100 100 100 100 100 100 100 100 100 95 70 86 32 5 50
0 1 76 74 89 100 100 100 100 100 100 100 100 100 100 100 100 100 100 100 100 100 100 100 100 98 100 91 100 70 29 42
0 0 18 100 88 100 100 100 100 100 100 100 100 100 100 100 100 100 100 100 100 100 100 100 90 89 100 92 92 41 72 97
0 0 0 22 91 99 100 100 100 100 100 100 100 100 100 100 100 100 100 100 100 100 97 98 96 61 88 100 92 100 80 96
0 0 0 0 3 100 96 100 100 100 100 100 100 100 100 100 100 100 100 100 100 100 100 100 100 100 100 100 96 100 100 100
1 0 0 0 0 31 100 97 100 100 100 100 100 100 100 100 100 100 100 100 100 100 100 100 100 100 100 100 100 100 100 100
6 1 0 0 0 4 84 100 100 100 100 100 100 100 100 100 100 100 100 100 100 100 100 100 100 100 100 100 100 100 100 100
0 5 0 0 0 0 2 75 100 100 100 100 100 100 100 100 100 100 100 100 100 100 100 100 100 100 100 100 100 100 100 100
0 4 4 0 0 0 0 0 4 93 100 100 100 100 100 100 100 100 100 100 100 100 100 100 100 100 100 100 100 100 100 100
0 0 2 1 1 5 0 0 0 0 49 98 61 99 100 100 100 100 100 100 100 100 100 100 100 100 100 100 100 100 100 100
4 0 0 5 2 5 5 4 0 0 0 16 31 61 80 78 78 100 100 99 100 100 100 100 100 100 100 100 100 100 100 99
5 1 0 2 5 2 1 5 0 0 0 1 24 7 27 38 23 3 2 58 100 100 100 100 100 100 100 68 100 98 92 100
7 5 0 0 4 79 1 5 2 2 0 2 0 19 23 18 0 0 4 5 5 6 88 100 100 100 100 100 100 100 100 100
31 8 6 15 19 5 100 51 5 1 5 1 0 0 0 0 0 0 3 5 6 5 5 5 8 49 74 58 100 100 100 100
5 18 34 84 9 13 23 14 100 80 5 5 5 1 0 0 39 5 3 32 48 75 24 3 5 84 35 99 87 63 100 100
100 95 60 60 75 46 34 5 5 67 100 91 4 5 5 5 5 0 0 0 9 12 74 95 100 98 100 96 99 99 82 43
100 100 100 100 100 98 100 79 5 6 77 77 77 5 5 5 5 5 5 4 5 5 0 0 0 26 49 100 97 87 99 100
100 100 100 93 94 97 48 95 55 5 52 82 79 29 5 5 5 5 5 14 20 16 12 20 40 74 100 100 100 70 100 100
100 100 47 100 69 81 100 72 20 64 20 58 100 100 80 62 61 74 90 94 45 83 99 99 100 100 100 100 100 100 100 100

GFSFLT1_prec_cloud_057.txt.gz
Cloud_Cover
0 0 0 14 99 100 100 100 100 100 100 100 100 100 100 100 100 100 100 100 100 100 100 100 100 100 98 93 77 70 92 100
0 0 0 2 100 100 100 100 100 100 100 100 100 100 100 100 100 100 100 100 100 100 100 100 100 100 100 99 100 98 59 100
0 0 0 0 81 100 100 100 100 100 100 100 100 100 100 100 100 100 100 100 100 100 100 100 100 100 100 89 76 100 100 86
0 0 0 0 35 71 100 100 100 100 100 100 100 100 100 100 100 100 100 100 100 100 100 100 100 100 100 99 100 100 100 100
0 0 0 0 0 88 99 100 100 100 100 100 100 100 100 100 100 100 100 100 100 100 100 100 100 100 100 100 100 99 100 72
0 0 0 0 0 32 81 100 100 100 100 100 100 100 100 100 100 100 100 100 100 100 100 100 100 100 100 100 100 97 100 100
0 0 0 0 0 4 81 85 100 100 100 100 100 100 100 100 100 100 100 100 100 100 99 100 100 100 100 100 100 100 100 100
1 0 0 0 0 0 7 98 90 100 100 100 100 100 100 100 100 100 100 100 100 100 100 100 100 100 100 100 100 100 100 100
11 18 0 0 0 0 0 1 38 100 100 100 100 100 100 100 100 100 100 100 100 100 100 100 100 100 100 100 100 100 100 100
61 100 0 0 0 0 0 0 0 22 100 100 100 100 100 100 100 100 100 100 100 100 100 100 100 100 100 100 100 100 100 100
100 100 11 0 0 0 0 0 0 0 6 99 98 72 100 100 100 100 100 100 100 100 100 100 100 100 100 100 100 100 100 100
100 100 32 0 0 0 0 0 0 0 0 3 51 85 93 100 95 81 91 100 100 100 100 100 100 100 100 100 100 100 100 100
74 100 40 0 1 1 0 0 0 5 2 0 0 0 2 54 9 0 6 10 26 0 1 4 10 16 18 20 27 100 71 100
9 84 100 2 2 0 0 0 0 0 77 100 6 0 0 0 0 0 1 0 0 0 8 5 4 0 2 2 5 5 8 12
5 5 69 100 2 5 5 4 1 0 0 6 98 64 2 5 0 0 0 0 2 0 3 2 2 0 0 5 3 4 10 17
5 97 100 92 4 5 69 64 4 4 0 2 1 3 100 100 7 3 3 5 4 0 0 0 0 2 17 26 75 18 72 61
99 100 100 9 5 5 5 98 69 10 5 31 3 0 5 64 5 5 8 5 5 5 5 5 6 3 0 0 5 4 7 5
100 99 70 10 5 40 100 100 84 23 5 12 37 5 5 3 1 77 29 57 85 64 17 5 23 60 12 92 47 10 49 50
100 100 100 5 5 60 100 100 99 8 5 5 5 45 46 82 40 6 90 100 100 100 56 23 6 15 49 55 95 89 72 49

GFSFLT1_prec_cloud_060.txt.gz
Cloud_Cover
0 0 0 0 6 100 100 88 100 100 100 100 100 100 100 100 100 100 100 100 100 100 100 100 100 100 100 100 100 100 100 100
0 0 0 0 4 82 100 100 100 100 100 100 100 100 100 100 100 100 100 100 100 100 100 100 100 100 100 100 100 100 100 100
0 0 0 0 5 98 100 100 100 100 100 100 100 100 100 100 100 100 100 100 100 100 100 100 100 100 100 100 100 100 100 100
0 0 0 0 0 88 100 100 100 100 77 100 100 100 100 100 100 100 100 100 100 94 100 100 100 100 100 100 100 100 100 100
1 0 0 0 0 18 100 100 100 100 99 100 92 100 99 100 100 100 100 100 100 99 100 100 100 100 100 100 100 98 100 100
0 0 0 0 0 1 100 100 100 100 100 100 100 100 98 86 100 100 100 100 100 100 100 100 100 100 100 100 94 100 100 100
0 0 0 0 0 0 50 100 100 100 100 100 99 100 100 100 100 100 100 100 100 100 100 100 100 100 100 100 100 100 100 100
0 0 0 3 0 0 8 100 100 100 100 100 100 100 100 100 100 100 100 100 100 100 100 100 100 100 100 100 100 100 100 100
5 3 5 32 1 0 0 91 100 100 100 100 100 100 100 100 100 100 100 100 100 99 100 100 99 100 100 100 100 100 100 100
8 0 5 5 7 0 0 0 36 91 100 97 99 100 100 100 100 100 100 100 100 100 100 100 100 100 100 100 100 100 100 100
99 22 4 5 55 4 0 0 0 7 77 100 100 93 99 100 100 100 100 100 100 100 100 100 100 100 100 100 100 100 100 100
47 100 58 6 99 100 15 0 1 0 5 34 99 100 100 100 100 100 100 100 100 100 100 100 100 100 100 100 100 100 100 100
34 5 5 14 31 100 100 4 2 2 0 6 24 64 100 91 13 4 3 3 54 100 98 100 100 100 100 100 100 100 100 100
23 89 39 5 5 25 100 81 5 0 5 0 6 22 27 38 25 0 0 0 0 0 0 0 0 0 3 22 32 34 3 12
5 5 5 10 5 7 96 100 100 27 0 5 1 0 0 0 15 15 0 0 0 0 0 0 0 0 0 0 0 0 0 0
65 6 5 22 5 5 68 100 100 59 0 4 11 0 2 4 12 2 91 94 25 15 17 2 0 3 0 0 0 0 0 2
100 100 5 57 38 5 56 100 100 22 5 7 89 5 5 5 5 15 46 33 98 33 28 22 18 19 5 5 3 4 24 30
100 100 100 100 86 34 100 100 100 6 18 68 100 100 100 52 5 4 5 4 35 28 20 87 46 52 96 28 25 44 37 43
100 100 93 100 100 90 98 86 48 23 73 14 100 100 100 11 5 5 60 5 5 32 39 38 95 95 100 99 98 100 89 80

GFSFLT1_prec_cloud_063.txt.gz
Cloud_Cover
0 0 0 0 0 0 72 100 100 100 60 80 100 100 100 100 100 100 100 100 100 100 100 100 100 91 100 100 100 100 100 100
0 0 0 0 0 0 92 100 100 100 100 100 100 100 100 100 100 100 100 100 100 100 100 100 100 100 100 100 100 100 100 100
0 0 0 0 0 0 57 100 100 100 100 100 98 100 100 100 100 100 100 100 100 100 100 100 100 100 100 100 100 100 100 100
0 0 0 5 0 0 1 99 100 100 100 100 100 100 100 100 100 100 100 100 100 100 100 100 100 100 100 100 100 100 100 100
0 0 0 14 0 0 0 100 100 100 100 100 100 100 100 100 100 100 100 100 100 100 100 100 100 100 100 100 100 100 100 100
0 0 0 0 0 6 0 87 100 100 100 100 99 100 100 100 100 100 100 100 100 100 100 100 100 100 100 100 100 100 100 100
3 0 0 0 0 16 2 26 100 100 100 100 100 79 99 83 100 100 100 100 100 100 100 100 100 97 100 100 100 100 100 100
58 5 0 0 2 28 19 9 97 100 100 89 100 100 84 19 95 58 85 100 100 100 100 100 100 96 100 100 100 100 100 100
6 18 5 0 0 10 0 7 5 100 100 95 84 100 100 96 100 99 99 100 100 100 100 100 100 100 100 100 100 100 100 100
52 100 100 5 0 0 0 5 4 86 100 100 87 100 100 100 100 100 100 100 100 100 100 100 100 100 100 100 100 100 100 100
100 100 100 25 5 1 2 8 100 19 100 100 94 100 100 99 38 100 100 100 100 100 100 100 100 100 100 100 100 100 99 100
100 100 100 82 64 5 1 7 100 85 8 76 100 100 100 100 86 0 76 100 100 100 100 100 100 100 100 100 100 100 100 100
56 48 100 100 76 73 20 50 98 100 99 5 24 100 100 100 100 100 82 5 4 98 100 100 100 100 100 100 100 100 100 100
100 74 24 92 84 54 49 81 6 83 92 13 18 18 57 99 100 100 100 100 51 3 0 0 0 4 24 48 78 84 64 14
98 100 58 85 97 58 74 99 75 7 20 8 30 70 7 1 64 100 100 100 100 37 1 0 0 0 0 0 0 0 0 0
100 94 67 38 7 83 90 80 99 60 43 100 100 100 88 3 0 14 100 100 100 84 28 1 0 4 2 0 0 0 3 2
100 100 100 96 68 8 35 30 100 76 94 76 100 100 100 23 18 42 18 80 100 86 23 14 43 7 0 2 2 1 5 5
100 100 100 100 53 82 8 5 5 14 58 97 100 100 84 76 9 7 26 89 92 89 42 58 21 26 26 68 76 18 20 30
100 100 100 100 100 90 96 56 18 35 20 25 100 100 93 90 26 6 54 13 44 26 30 9 52 35 78 90 100 100 100 100

GFSFLT1_prec_cloud_066.txt.gz
Cloud_Cover
3 0 0 36 46 13 21 100 100 98 100 88 100 100 100 100 100 100 100 100 100 100 100 100 100 100 98 100 100 100 88 100
9 0 32 53 74 58 35 93 100 100 100 100 100 100 100 100 100 100 100 100 100 100 100 100 100 100 100 100 100 100 100 100
5 9 63 62 88 37 26 80 100 100 100 100 100 100 100 100 100 100 100 100 100 100 100 100 100 100 100 100 100 95 100 100
1 18 47 49 98 55 42 71 100 100 100 100 100 100 100 100 100 100 100 100 100 100 100 100 100 100 100 100 98 100 100 100
0 0 75 47 68 44 35 37 99 100 100 100 71 100 100 100 100 100 100 100 100 100 100 100 100 100 100 100 100 100 100 100
0 0 0 22 42 66 45 45 81 100 100 98 71 80 100 100 100 100 100 100 100 100 100 100 100 100 100 100 100 100 100 100
3 1 0 33 57 81 69 46 50 100 100 100 72 99 100 100 100 100 100 100 100 100 100 100 100 100 100 100 100 100 100 100
3 5 1 65 100 100 82 36 85 88 100 100 100 97 99 100 96 80 100 100 100 100 100 100 100 100 100 100 100 100 100 100
5 5 3 29 86 99 60 63 90 52 94 100 100 100 66 100 80 60 100 64 100 100 100 100 100 100 100 100 100 100 100 100
32 5 5 2 53 47 26 53 55 58 49 92 97 81 42 0 92 100 100 29 99 100 100 100 100 100 100 100 100 100 100 100
30 4 5 100 100 100 17 5 17 28 31 65 90 33 32 36 15 0 5 100 68 100 100 100 100 99 100 100 99 100 100 85
100 100 100 46 100 100 55 26 24 6 35 44 29 97 49 99 96 27 0 0 4 74 100 100 100 100 100 100 91 83 93 72
100 100 100 100 100 100 60 74 78 99 94 22 16 10 42 100 100 100 97 6 0 5 4 30 94 100 100 100 100 99 86 100
100 100 100 100 100 100 100 100 91 8 9 6 27 25 26 3 24 98 100 100 78 20 1 4 5 5 5 53 96 95 68 79
100 100 100 100 100 100 100 100 100 100 95 50 100 51 6 5 5 82 69 88 100 100 82 12 0 0 3 5 3 4 5 4
100 100 100 100 100 100 100 91 19 73 92 100 100 100 100 64 42 77 100 100 19 96 100 100 92 22 44 2 0 0 0 0
83 100 82 100 100 100 100 100 91 5 14 60 100 100 100 100 100 100 99 100 23 22 26 100 100 100 24 2 5 2 5 25
100 100 100 100 78 84 100 57 73 72 8 6 6 64 100 100 100 100 100 100 67 61 47 89 100 100 100 31 5 2 3 6
100 100 100 100 100 100 73 8 5 79 91 48 78 79 98 94 100 100 100 100 84 76 47 52 74 93 100 78 88 100 100 74

GFSFLT1_prec_cloud_069.txt.gz
Cloud_Cover
6 5 26 17 9 11 85 100 97 100 100 100 99 100 100 100 100 100 100 100 100 100 100 100 100 100 100 100 100 95 100 100
5 42 43 61 43 49 100 100 100 100 100 100 100 100 100 100 100 100 100 100 100 100 100 100 100 94 98 100 100 98 99 100
51 78 100 99 100 64 100 100 100 100 100 100 100 100 100 100 100 100 100 100 100 100 100 100 100 100 100 100 82 99 100 100
99 100 100 100 100 100 72 95 100 100 100 100 100 100 100 100 100 100 100 100 100 100 100 100 100 100 100 100 100 99 91 99
88 100 100 100 100 73 34 87 100 100 99 100 100 100 100 100 100 100 100 100 100 100 100 100 100 100 100 100 98 94 100 100
95 39 96 100 100 98 75 100 100 64 92 100 100 100 100 100 100 100 100 100 100 100 100 100 100 100 100 100 100 100 95 100
5 80 98 100 100 100 100 100 72 19 38 98 100 97 100 100 98 100 100 100 100 100 100 100 100 100 100 100 100 100 100 100
70 28 82 100 100 100 100 100 97 32 56 87 20 10 76 100 100 100 100 100 100 100 100 100 100 100 100 100 100 100 100 100
7 5 82 88 100 100 100 100 100 78 32 66 26 10 17 91 100 100 100 100 98 100 100 100 100 100 100 100 100 100 100 100
58 29 82 59 92 100 100 100 92 100 43 18 42 17 7 2 21 100 100 100 100 100 100 100 100 100 100 100 100 100 100 100
89 92 95 57 68 100 100 100 97 100 99 24 22 42 73 0 0 46 100 85 94 37 97 77 100 100 100 100 100 100 100 100
100 92 88 38 100 100 100 100 100 100 100 100 86 34 83 8 0 0 4 8 37 48 100 40 95 100 100 100 100 100 99 100
57 99 78 26 59 35 100 100 100 99 100 100 100 34 28 90 18 0 0 0 2 37 79 100 100 100 100 100 99 98 98 88
100 100 71 100 100 100 77 98 100 100 98 99 100 62 46 33 47 98 100 95 75 46 18 0 2 50 96 100 100 100 100 100
100 100 100 100 100 100 100 100 100 100 100 100 100 100 88 99 79 28 8 16 82 100 92 23 5 2 0 0 23 69 80 60
100 100 100 100 100 100 100 100 100 100 100 100 100 100 100 100 100 100 99 98 80 53 54 100 100 64 6 3 0 0 0 0
100 100 100 100 100 100 100 100 100 100 100 100 100 100 100 100 100 100 100 100 100 100 100 100 78 100 100 98 63 17 3 69
100 100 100 100 100 100 100 100 100 100 99 85 38 61 100 100 100 100 100 100 100 100 100 100 99 99 100 100 96 100 100 94
100 100 100 100 100 100 100 100 100 100 100 100 96 100 80 48 52 85 100 100 100 100 100 100 100 100 100 100 100 100 100 100

GFSFLT1_prec_cloud_072.txt.gz
Cloud_Cover
100 5 97 63 23 63 100 100 100 85 59 100 100 100 100 100 100 100 100 100 100 100 100 100 100 100 100 100 100 100 96 73
100 24 100 36 36 77 100 100 99 100 91 100 100 100 100 100 100 100 100 100 100 100 100 100 100 100 100 100 100 100 100 70
99 50 100 37 61 79 100 100 100 100 100 99 100 100 100 100 100 100 100 100 100 100 100 100 100 100 100 100 100 100 88 100
65 59 45 41 45 86 100 100 100 100 100 100 100 96 100 100 100 100 100 100 100 100 100 100 100 100 100 100 100 100 100 100
68 41 56 96 68 88 100 100 100 100 100 100 100 100 91 100 100 100 100 100 100 100 100 100 100 100 100 100 100 100 100 100
51 100 7 100 94 100 100 99 100 100 100 100 100 100 73 100 100 100 100 100 100 100 100 100 100 100 100 100 100 100 100 100
63 97 100 100 99 100 65 100 100 100 100 100 100 100 100 90 98 100 100 100 100 100 100 100 100 100 100 100 100 100 100 100
60 100 100 100 100 100 100 100 100 100 100 100 100 100 100 100 100 92 100 100 100 100 100 100 100 100 100 100 100 100 100 100
85 100 100 74 100 100 100 100 100 100 78 70 100 100 98 93 100 99 100 100 100 100 100 100 100 100 100 100 100 100 100 100
5 19 30 77 100 100 100 100 100 100 76 12 33 55 99 100 100 100 100 100 100 100 100 100 100 100 100 100 100 100 100 100
96 84 98 100 100 100 100 100 100 79 98 11 9 10 54 98 100 100 100 100 100 100 100 100 100 100 100 100 100 100 100 100
75 100 100 100 100 100 100 100 100 100 100 99 18 16 22 15 34 48 100 100 100 100 100 94 100 86 100 100 100 100 100 100
100 100 100 100 100 100 100 100 100 100 100 100 100 98 21 17 2 0 12 95 100 100 100 71 26 68 100 100 100 100 100 100
100 100 100 100 100 100 100 100 100 100 100 100 100 100 99 12 5 0 1 1 0 21 45 89 100 60 48 26 47 94 100 28
100 100 100 100 100 100 100 100 100 100 100 100 100 100 100 100 100 95 46 14 1 0 18 40 76 98 100 67 16 0 1 23
100 100 100 100 100 100 100 100 100 100 100 100 100 100 100 100 100 100 100 100 100 100 97 68 53 91 100 94 52 34 0 1
100 100 100 100 100 100 100 100 100 100 100 100 100 100 100 100 100 100 100 100 100 100 100 100 100 100 100 91 95 64 59 63
100 100 100 100 100 100 100 100 100 100 96 100 100 100 100 100 100 100 100 100 100 100 100 100 100 100 100 100 100 100 100 98
100 100 100 100 100 100 100 100 100 100 100 100 100 100 100 100 100 88 89 77 100 100 100 100 100 100 100 100 100 100 100 100

GFSFLT1_prec_cloud_075.txt.gz
Cloud_Cover
60 96 100 36 48 10 86 100 100 100 100 100 100 100 100 100 100 98 100 100 100 100 100 100 100 100 100 100 86 100 100 100
5 78 100 73 26 86 100 100 100 100 100 100 100 100 100 100 100 100 100 100 100 100 100 100 100 100 100 100 100 100 100 100
18 100 100 77 25 87 100 90 90 97 50 61 100 100 100 100 100 100 100 100 100 100 100 100 100 100 100 100 100 100 100 100
100 100 100 64 83 69 97 76 100 74 100 100 100 100 100 100 100 100 100 100 100 100 100 100 100 100 100 100 100 100 100 99
91 82 69 97 99 91 70 95 100 100 100 100 100 100 100 100 100 100 100 100 100 100 100 100 100 100 100 100 100 100 100 100
100 78 100 99 56 79 100 100 97 100 100 100 100 100 88 100 100 100 100 100 100 100 100 100 100 100 100 100 100 100 100 100
88 62 100 100 98 100 100 100 99 100 100 79 100 100 100 88 100 100 100 100 100 100 100 100 100 100 100 100 100 100 100 100
100 100 94 100 100 100 100 100 100 100 100 98 100 100 100 100 100 100 100 100 100 100 100 100 100 100 100 100 100 100 100 100
100 100 94 100 100 100 100 100 100 100 100 100 100 100 100 100 100 100 100 100 100 100 100 100 100 100 100 100 100 100 100 100
100 100 80 100 100 100 100 100 100 100 100 100 77 100 100 100 100 100 98 100 100 100 100 100 100 100 100 100 100 100 100 100
100 100 96 100 100 100 100 100 63 98 100 96 56 24 97 100 100 100 100 100 100 100 95 91 100 100 100 100 100 100 100 100
100 100 100 100 100 100 100 100 86 66 100 100 77 66 54 64 99 100 100 100 100 100 100 100 100 100 100 100 100 100 100 100
100 100 100 100 100 100 100 100 100 99 100 100 100 99 95 91 73 50 78 100 100 100 100 100 100 100 100 96 100 100 100 100
100 100 100 100 100 100 100 100 100 100 100 100 100 100 100 100 82 61 46 41 66 96 100 100 100 100 54 55 97 96 85 95
100 100 100 100 100 100 100 100 100 100 100 100 100 100 100 100 91 71 64 50 53 48 48 55 35 46 59 100 100 100 100 81
100 100 100 100 100 100 100 100 100 100 100 100 100 100 100 100 100 100 98 89 51 97 48 23 30 78 100 100 100 100 100 100
100 100 100 100 100 100 100 100 100 100 100 100 100 100 100 100 100 100 100 100 100 100 100 100 100 100 100 100 100 100 100 100
100 100 100 100 100 100 100 100 100 100 100 100 100 100 100 100 100 100 100 100 100 100 100 100 100 100 100 100 100 100 100 100
100 100 100 100 100 100 100 100 100 100 100 100 100 100 99 100 100 100 100 100 100 100 100 100 100 100 100 100 100 100 100 100

GFSFLT1_prec_cloud_078.txt.gz
Cloud_Cover
0 3 5 5 5 78 100 52 64 73 100 86 100 100 100 100 100 100 100 98 100 100 100 100 100 100 100 100 100 100 100 90
0 0 0 3 32 100 99 76 100 95 97 100 100 100 100 100 100 100 100 100 100 100 100 100 100 100 100 100 100 100 100 100
42 13 63 5 84 97 66 47 100 100 80 100 100 100 100 100 93 100 82 94 82 100 100 100 100 100 100 100 100 100 100 100
95 23 27 6 100 87 49 33 100 58 78 99 97 85 100 99 95 100 100 100 96 100 100 100 100 100 100 100 100 100 100 100
53 5 5 100 100 99 86 100 82 42 42 44 39 51 100 75 100 100 100 100 100 100 100 100 100 100 100 100 100 100 100 100
5 41 8 100 100 100 100 100 94 33 36 8 20 86 100 76 98 100 100 100 100 100 100 100 100 100 100 100 100 100 100 100
30 20 78 95 100 100 100 95 95 39 45 35 47 50 100 95 100 100 100 100 100 100 100 100 100 100 100 100 100 100 100 100
65 74 99 100 100 100 100 70 100 99 32 27 35 68 68 97 73 100 100 100 100 100 100 100 100 100 100 100 100 100 100 100
100 21 100 100 100 100 100 70 100 100 44 15 80 42 66 100 100 100 100 100 100 100 100 100 100 100 100 100 100 100 100 100
100 63 100 100 100 100 100 100 100 100 99 33 63 74 80 100 100 100 100 100 100 100 100 100 100 100 100 100 100 100 100 100
77 84 100 100 100 100 100 100 100 100 100 78 100 100 78 98 100 100 100 100 100 100 100 100 100 100 100 100 100 100 100 100
80 100 100 100 100 100 100 100 100 100 100 100 100 100 88 100 100 99 86 100 100 100 100 100 100 100 100 100 100 100 100 100
100 100 100 100 100 100 100 100 100 77 100 100 100 100 97 100 100 100 100 100 100 100 100 93 90 100 100 100 100 100 100 100
100 100 100 100 100 100 100 100 100 100 100 100 100 100 98 100 75 96 100 100 100 100 100 100 100 100 100 100 100 100 100 100
100 100 100 100 100 100 100 100 100 100 100 100 100 100 100 100 100 60 73 98 100 100 100 100 100 100 100 100 100 100 81 100
100 100 100 100 100 100 100 100 100 100 100 100 100 100 100 100 100 100 100 99 98 100 100 100 100 100 100 100 100 100 100 100
100 100 100 100 100 100 100 100 100 100 100 100 100 100 100 100 100 100 100 100 100 100 100 100 100 100 100 100 100 100 100 100
100 100 100 100 100 100 100 100 100 100 100 100 100 100 100 100 100 100 100 100 100 100 100 100 100 100 100 100 100 100 100 100
100 100 100 100 100 100 100 100 100 100 100 100 100 100 100 100 100 100 100 100 100 100 100 100 100 100 100 100 100 100 100 100

GFSFLT1_prec_cloud_081.txt.gz
Cloud_Cover
56 6 1 0 0 0 5 30 25 22 28 100 91 100 100 100 100 100 69 75 93 100 51 100 100 100 100 100 100 100 100 100
100 9 0 0 0 0 0 20 27 17 1 53 100 94 100 100 97 99 85 89 74 87 100 100 100 100 100 100 100 100 100 100
97 4 0 0 0 0 0 26 40 9 34 91 100 70 49 57 92 89 92 64 94 52 87 100 100 100 100 100 100 100 100 100
11 2 0 0 2 0 0 54 99 7 78 100 100 41 70 95 100 74 99 55 71 70 100 100 100 100 100 100 100 100 100 100
2 0 0 5 0 0 4 100 40 31 98 100 86 92 63 76 72 58 46 100 100 100 100 100 100 100 100 100 100 100 100 100
0 0 0 5 0 0 99 100 89 100 100 100 31 5 86 64 91 64 100 98 100 92 100 100 100 100 100 100 100 100 100 100
1 0 0 0 0 27 100 93 100 100 100 35 6 13 53 67 100 88 100 100 100 100 100 100 100 100 100 100 100 100 100 100
2 1 5 0 39 96 100 100 100 100 100 16 5 10 97 23 72 74 100 100 100 100 100 100 100 100 100 100 100 100 100 100
6 4 2 1 94 100 100 100 100 100 87 6 4 8 100 100 100 89 100 100 100 100 100 100 100 100 100 100 100 100 100 100
0 4 0 98 97 100 100 100 100 100 61 16 8 52 100 100 71 36 100 100 100 97 98 100 100 100 100 100 100 100 100 100
9 12 35 100 93 100 100 100 100 100 65 38 36 89 98 81 80 94 100 100 100 99 100 100 100 100 100 100 100 100 100 100
95 93 100 94 100 100 100 100 100 100 95 67 100 100 100 84 84 81 100 100 100 100 100 100 100 100 100 100 100 100 100 100
100 100 100 100 100 100 100 100 100 100 100 98 100 100 100 88 100 100 77 100 100 100 100 100 100 100 100 100 100 100 100 100
100 100 100 100 100 100 100 100 100 100 100 100 100 100 97 20 78 56 84 100 100 100 100 100 100 100 100 100 100 100 100 100
100 100 100 100 100 100 100 100 100 100 100 100 100 100 100 99 100 100 100 100 100 100 100 100 100 100 100 100 100 100 100 100
100 100 100 100 100 100 100 100 100 100 100 100 100 100 100 99 85 70 100 100 100 100 100 100 100 100 100 100 100 100 100 100
100 100 100 100 100 100 100 100 100 100 100 100 100 100 100 100 100 100 100 100 100 100 100 100 100 100 100 100 79 98 100 95
100 100 100 100 100 100 100 100 100 100 100 100 100 100 100 100 100 100 100 100 100 100 100 100 100 100 100 100 100 100 100 100
100 100 100 100 100 100 100 100 100 100 100 100 100 100 100 100 100 100 100 100 100 100 100 100 100 100 100 100 100 100 100 100

GFSFLT1_prec_cloud_084.txt.gz
Cloud_Cover
100 100 100 100 100 100 100 9 13 8 42 4 7 93 89 35 27 73 55 33 11 23 100 100 100 100 100 100 100 100 100 100
100 100 100 100 100 99 100 79 18 0 36 5 44 74 100 52 95 100 96 15 9 33 62 57 100 100 100 100 100 100 100 100
100 100 100 99 100 84 100 58 4 8 23 5 2 0 3 18 60 93 100 39 85 54 65 96 100 100 100 100 100 100 100 100
100 100 100 73 100 97 63 6 0 6 5 4 37 17 15 100 100 50 20 96 100 37 99 100 100 97 100 100 100 100 100 100
100 100 100 100 26 1 0 0 0 26 5 79 7 5 37 84 99 12 20 50 45 35 98 100 82 100 100 100 100 100 100 100
100 100 93 8 3 0 0 0 0 12 100 88 5 54 100 75 6 28 100 99 50 59 92 99 100 100 100 100 100 100 100 100
100 100 26 81 0 0 0 0 0 98 100 56 92 100 100 5 44 100 100 100 100 100 92 100 100 100 100 100 100 100 100 100
100 98 91 87 4 0 0 1 27 100 70 72 100 100 86 21 88 98 100 100 100 100 100 100 100 100 100 100 100 100 100 100
100 98 62 99 4 0 0 3 80 100 69 100 100 100 2 1 28 45 47 98 100 100 100 100 100 100 100 100 100 100 100 100
100 19 5 100 28 1 0 3 87 65 100 100 100 26 7 16 100 100 15 83 100 100 100 100 100 100 100 100 100 100 100 100
64 100 86 13 69 12 0 12 100 100 100 100 98 46 96 100 100 22 75 89 100 100 100 100 100 100 100 100 100 100 100 100
100 100 100 100 91 21 100 99 100 100 100 100 93 98 100 100 100 96 100 100 100 100 100 100 100 100 100 100 100 100 100 100
100 100 100 100 100 96 100 100 100 100 100 100 84 100 100 100 100 100 100 100 100 100 100 100 100 100 100 100 100 100 100 100
100 100 100 100 100 100 100 100 100 100 100 100 100 100 100 100 100 100 100 100 100 100 100 100 100 100 100 100 100 100 100 100
100 100 100 100 100 100 100 100 100 100 100 100 100 100 100 100 100 100 100 100 100 100 100 100 100 100 100 100 100 100 100 100
100 100 100 100 100 100 100 100 100 100 100 100 100 100 100 100 100 100 100 100 100 100 100 100 100 100 100 100 100 100 100 100
100 100 100 100 100 100 100 100 100 100 100 100 100 100 100 100 100 100 100 100 100 100 100 100 100 100 100 100 100 100 100 100
100 100 100 100 100 100 100 100 100 100 100 100 100 100 100 100 100 100 100 100 100 100 100 100 100 100 100 100 100 100 100 100
100 100 100 100 100 100 100 100 100 100 100 100 100 100 100 100 100 100 100 100 100 100 100 100 100 100 100 100 100 100 100 100

GFSFLT1_prec_cloud_087.txt.gz
Cloud_Cover
100 100 98 100 100 100 100 100 100 100 100 100 96 6 81 24 17 0 0 70 66 44 56 82 100 100 100 100 100 100 100 100
100 100 35 100 100 100 100 100 100 100 100 88 91 100 100 80 32 0 0 8 27 55 93 100 99 100 100 100 100 100 100 100
70 83 100 100 100 100 100 100 100 100 92 52 100 95 100 50 20 2 0 9 30 48 91 100 94 74 100 100 100 100 100 100
98 100 100 100 100 100 100 100 93 100 32 85 46 3 19 39 16 2 14 36 18 50 90 100 89 85 100 100 100 100 100 100
100 100 100 100 100 100 100 100 100 100 100 54 29 27 76 33 0 6 16 23 30 69 93 91 92 96 95 100 99 100 100 100
93 100 98 100 100 100 100 100 58 8 5 5 5 5 95 25 5 97 23 33 50 59 79 100 100 100 86 98 100 100 100 100
100 95 100 100 87 18 100 100 100 73 2 1 78 50 45 9 5 22 46 95 91 61 80 89 81 100 100 98 100 100 100 100
100 100 100 100 100 100 100 100 65 2 4 3 62 82 74 6 5 39 93 100 100 100 95 100 100 100 100 100 100 100 100 100
100 100 100 91 42 93 22 4 15 48 6 60 31 5 94 24 35 5 68 73 96 100 74 100 100 100 100 100 100 100 100 100
100 100 100 100 89 84 49 100 58 24 100 75 100 88 100 99 5 8 44 93 100 97 100 100 100 100 100 100 100 100 100 100
100 100 100 100 94 100 100 100 100 96 100 94 100 100 100 82 26 100 90 70 100 100 100 100 100 100 100 100 100 100 100 100
100 100 100 100 100 100 100 100 100 100 85 100 100 100 100 100 100 100 49 48 96 100 98 100 100 100 100 100 100 100 100 100
100 100 100 100 100 100 100 100 100 100 100 100 100 100 100 100 100 100 100 100 100 100 100 100 100 100 100 100 100 100 100 100
100 100 100 100 100 100 100 100 100 100 100 100 100 100 100 100 100 100 100 100 100 100 100 100 100 100 100 100 100 100 100 100
100 100 100 100 100 100 100 100 100 100 100 100 100 100 100 100 100 100 100 100 100 100 100 100 100 100 100 100 100 100 100 100
100 100 100 100 100 100 100 100 100 100 100 100 100 100 100 100 100 100 100 100 100 100 100 100 100 100 100 100 100 100 100 100
100 100 100 100 100 100 100 100 100 100 100 100 100 100 100 100 100 100 100 100 100 100 100 100 100 100 100 100 100 100 100 100
100 100 100 100 100 100 100 100 100 100 100 100 100 100 100 100 100 100 100 100 100 100 100 100 100 100 100 100 100 100 100 100
100 100 100 100 100 100 100 100 100 100 100 100 100 100 100 100 100 100 100 100 100 100 100 100 100 100 100 100 100 100 100 100

GFSFLT1_prec_cloud_090.txt.gz
Cloud_Cover
37 98 100 100 37 100 97 93 97 100 99 96 57 100 100 98 30 11 6 18 15 39 68 80 81 99 100 100 100 100 100 100
71 34 98 32 98 100 5 5 78 100 100 100 100 100 97 100 100 69 5 5 4 73 54 86 100 100 100 100 100 100 100 100
100 100 99 98 98 99 21 90 100 100 100 100 100 89 21 78 65 76 6 8 16 24 23 87 100 100 100 100 100 100 100 100
100 100 100 99 31 8 45 100 100 86 41 100 100 15 47 67 98 50 22 7 22 34 35 87 100 100 100 100 100 100 100 100
83 91 9 10 1 10 100 100 100 71 100 100 54 17 96 97 89 67 15 13 45 76 92 95 73 100 100 100 100 100 100 100
100 49 5 100 10 96 100 100 100 100 90 99 100 100 100 70 60 53 16 28 42 72 100 100 100 97 100 100 100 60 100 100
100 100 7 26 100 100 52 100 100 100 100 100 63 100 100 69 94 44 70 67 69 98 100 100 100 100 100 100 100 91 82 100
100 100 100 100 100 100 100 100 100 100 100 77 74 48 25 68 82 34 100 100 100 100 98 100 100 96 100 100 100 100 100 100
100 100 100 100 100 100 100 100 100 100 100 100 100 99 32 94 63 38 100 76 71 100 100 100 100 100 100 100 100 100 100 100
100 100 100 100 100 100 94 100 100 100 100 100 100 54 23 100 22 21 75 100 100 86 70 100 100 100 100 100 100 100 100 100
100 100 100 100 100 100 100 100 100 100 100 100 100 56 95 89 5 41 100 100 100 100 100 98 100 98 100 100 100 100 100 100
100 100 100 100 100 100 100 100 100 100 100 100 97 51 46 29 66 99 100 100 83 96 100 100 100 100 100 100 100 100 100 100
100 100 100 100 100 100 100 100 100 100 100 100 100 100 100 100 79 100 100 100 100 100 100 100 100 100 100 100 100 100 100 100
100 100 100 100 100 100 100 100 100 100 100 100 100 100 100 100 100 100 100 100 100 100 100 100 100 100 100 100 100 100 100 100
100 100 100 100 100 100 100 100 100 100 100 100 100 100 100 100 100 100 100 100 100 100 100 100 100 100 100 100 100 100 100 100
100 100 100 100 100 100 100 100 100 100 100 100 100 100 100 100 100 100 100 100 100 100 100 100 100 100 100 100 100 100 100 100
100 100 100 100 100 100 100 100 100 100 100 100 100 100 100 100 100 100 100 100 100 100 100 100 100 100 100 100 100 100 100 100
100 100 100 100 100 100 100 100 100 100 100 100 100 100 100 100 100 100 100 100 100 100 100 100 100 100 100 100 100 100 100 100
100 100 100 100 100 100 100 100 100 100 100 100 100 100 100 100 100 100 100 100 100 100 100 100 100 100 100 100 100 100 100 100

GFSFLT1_prec_cloud_093.txt.gz
Cloud_Cover
0 0 2 59 88 100 54 63 98 93 100 71 48 54 57 87 100 98 100 100 100 81 100 100 100 100 100 100 100 100 100 100
0 0 0 5 6 70 100 81 100 83 100 100 98 61 72 100 100 100 100 100 100 100 100 100 100 100 100 100 100 100 100 100
0 0 0 6 73 100 47 100 100 100 100 100 31 18 98 100 100 100 99 54 92 99 100 100 100 100 100 100 100 100 100 100
0 0 28 21 38 97 70 100 100 100 100 100 57 76 100 100 100 100 100 82 65 90 74 100 100 100 100 100 100 100 100 100
9 95 100 43 100 100 46 100 100 100 100 98 20 89 87 100 100 100 100 86 63 48 88 90 100 100 100 100 100 100 100 100
30 100 100 100 80 56 100 100 78 100 75 19 29 94 100 100 100 100 100 84 86 100 100 100 100 100 100 100 100 100 100 100
99 76 96 100 100 100 100 100 100 100 100 93 99 100 100 100 100 100 98 100 100 100 100 89 86 100 100 100 100 100 100 100
100 100 100 100 100 100 100 100 100 100 100 99 100 100 100 100 100 100 100 100 100 100 100 100 100 100 99 100 100 100 100 100
100 100 100 100 100 100 100 100 100 100 100 100 100 100 100 100 100 100 100 100 94 94 100 100 100 100 100 100 100 100 100 96
100 100 100 100 100 100 100 100 100 100 100 100 100 100 100 99 100 100 100 100 100 100 100 100 100 100 100 100 100 100 100 100
100 100 100 100 100 100 100 100 100 100 100 100 100 100 100 100 96 52 91 56 78 100 100 97 100 100 100 100 100 100 100 100
100 100 100 100 100 100 100 100 100 100 100 100 100 100 100 100 64 35 36 67 100 99 100 81 100 93 100 98 100 100 100 100
100 100 100 100 100 100 100 100 100 100 100 100 100 100 100 100 93 63 40 38 35 92 100 100 100 100 100 100 100 100 100 100
100 100 100 100 100 100 100 100 100 100 100 100 100 100 100 100 100 93 87 68 58 98 100 100 100 100 100 100 100 100 100 100
100 100 100 100 100 100 100 100 100 100 100 100 100 100 100 100 100 100 100 100 100 100 100 100 100 100 100 100 100 100 100 100
100 100 100 100 100 100 100 100 100 100 100 100 100 100 100 100 100 100 100 100 100 100 100 100 100 100 100 100 100 100 100 100
100 100 100 100 100 100 100 100 100 100 100 100 100 100 100 100 100 100 100 100 100 100 100 100 100 100 100 100 100 100 100 100
100 100 100 100 100 100 100 100 100 100 100 100 100 100 100 100 100 100 100 100 100 100 100 100 100 100 100 100 100 100 100 100
100 100 100 100 100 100 100 100 100 100 100 100 100 100 100 100 100 100 100 100 100 100 100 100 100 100 100 100 100 100 100 100

GFSFLT1_prec_cloud_096.txt.gz
Cloud_Cover
77 92 19 5 5 6 1 96 5 45 64 91 97 100 100 97 100 100 100 100 100 100 100 100 100 100 100 96 95 100 100 100
1 0 5 97 24 0 0 5 2 49 89 100 100 100 100 100 100 100 100 100 100 100 100 100 100 100 100 100 100 100 100 100
0 5 4 0 0 0 0 0 1 30 8 99 100 100 100 100 100 100 100 100 100 100 100 100 100 100 100 100 100 100 100 100
2 1 0 0 0 0 0 6 0 28 65 100 81 81 98 100 100 100 100 100 100 100 100 100 100 100 100 100 100 100 100 100
0 0 0 0 29 43 0 14 92 100 78 100 100 30 75 100 100 97 100 100 100 100 100 100 100 85 100 100 100 100 100 100
1 47 76 97 89 100 58 100 100 100 100 100 100 85 100 100 60 100 100 100 100 100 100 100 100 100 100 100 100 100 100 100
98 100 100 100 100 100 92 100 100 100 100 100 100 13 100 91 90 99 100 100 100 100 100 100 100 100 100 93 100 100 100 100
98 99 100 100 100 100 100 100 100 75 100 100 99 94 99 63 90 100 100 100 100 100 100 100 100 100 100 90 91 100 100 100
93 100 100 100 100 100 100 100 100 100 100 100 100 100 100 100 100 100 100 100 100 100 100 100 100 100 82 100 100 100 100 100
100 100 100 100 100 100 100 100 100 100 100 100 100 100 100 100 100 100 100 100 100 100 100 100 100 49 100 100 96 100 100 100
100 100 100 100 100 100 100 100 100 100 100 100 100 100 100 100 100 100 100 100 100 100 100 100 100 100 100 100 100 100 100 100
100 100 100 100 100 100 100 100 100 100 100 100 100 100 100 100 100 100 100 100 100 100 100 100 100 100 100 100 100 100 100 100
100 100 100 100 100 100 100 100 100 100 100 100 100 100 100 100 100 100 100 89 66 96 100 100 100 100 100 100 100 100 100 100
100 100 100 100 100 100 100 100 100 100 100 100 100 100 100 100 100 100 100 100 55 66 83 100 100 100 96 100 100 100 100 100
100 100 100 100 100 100 100 100 100 100 100 100 100 100 100 100 100 100 100 100 100 100 100 100 100 100 100 100 100 100 100 100
100 100 100 100 100 100 100 100 100 100 100 100 100 100 100 100 100 100 100 100 100 100 100 100 100 100 100 100 100 100 100 100
100 100 100 100 100 100 100 100 100 100 100 100 100 100 100 100 100 100 100 100 100 100 100 100 100 100 100 100 100 100 100 100
100 100 100 100 100 100 100 100 100 100 100 100 100 100 100 100 100 100 100 100 100 100 100 100 100 100 100 100 100 100 100 100
100 100 100 100 100 100 100 100 100 100 100 100 100 100 100 100 100 100 100 100 100 100 100 100 100 100 100 100 100 100 100 100

GFSFLT1_prec_cloud_099.txt.gz
Cloud_Cover
100 100 100 100 40 5 30 95 92 87 5 34 86 95 94 91 77 100 100 94 100 100 100 100 100 100 100 100 100 100 100 100
100 100 100 92 6 5 58 5 5 35 72 23 49 100 100 85 53 100 100 97 100 100 100 100 100 100 100 100 100 100 100 100
5 5 5 5 18 80 91 16 0 8 44 0 0 36 100 98 100 100 100 94 100 100 100 100 100 100 100 100 100 100 100 100
5 5 1 0 4 4 17 33 9 0 0 0 34 93 100 100 100 100 100 100 100 100 100 100 100 100 100 100 100 100 100 100
5 5 5 5 5 84 100 100 70 24 25 13 76 69 100 100 100 100 100 100 100 100 100 100 100 100 100 100 90 100 100 100
5 6 33 28 80 95 100 100 100 100 99 0 26 100 100 86 100 100 100 100 100 100 100 100 100 100 100 99 100 100 100 100
56 87 32 69 100 100 100 100 100 100 100 70 99 100 93 100 99 100 100 98 100 100 100 100 100 100 100 95 76 100 100 100
97 79 32 100 100 100 100 100 100 100 98 75 100 100 100 92 100 98 59 72 100 100 100 100 100 100 100 100 99 100 100 100
5 23 98 99 100 100 100 100 100 100 99 100 100 100 100 100 100 100 37 100 100 100 100 100 100 100 100 100 95 100 100 98
30 36 88 96 100 100 100 100 100 100 100 100 100 100 100 100 100 85 100 100 100 100 100 100 100 100 98 100 100 100 100 100
15 51 94 100 100 100 100 100 100 100 100 100 100 100 99 100 100 100 100 100 100 100 100 100 100 100 100 100 100 100 100 100
56 48 85 100 100 100 100 100 100 100 100 100 100 100 100 100 100 100 100 100 100 100 100 100 100 100 100 100 100 100 100 100
100 100 100 100 100 100 100 100 100 100 100 100 100 100 100 100 100 100 100 100 100 100 100 100 100 100 100 100 100 100 100 100
98 100 100 100 100 100 100 100 100 100 100 100 100 100 100 100 100 100 100 100 100 100 100 100 100 100 100 100 100 100 94 93
99 98 100 100 100 100 100 100 100 100 100 100 100 100 100 100 100 100 100 98 100 100 100 100 100 100 100 100 98 100 100 100
100 98 100 100 100 100 100 100 100 100 100 100 100 100 100 100 100 100 100 100 100 100 100 100 100 100 100 100 100 100 100 100
100 100 100 100 100 100 100 100 100 100 100 100 100 100 100 100 100 100 100 100 100 100 100 100 100 100 100 100 100 100 100 100
100 100 100 100 100 100 100 100 100 100 100 100 100 100 100 100 100 100 100 100 100 100 100 100 100 100 100 100 100 100 100 100
100 100 100 100 100 100 100 100 100 100 100 100 100 100 100 100 100 100 100 100 100 100 100 100 100 100 100 100 100 100 100 100

GFSFLT1_prec_cloud_102.txt.gz
Cloud_Cover
5 4 5 5 24 59 95 100 100 96 100 100 100 58 100 100 99 100 100 100 85 100 100 100 100 100 100 100 100 100 100 100
5 5 5 8 6 5 5 5 5 8 32 6 65 12 15 98 100 100 97 100 100 100 100 100 100 100 100 100 100 100 100 100
6 11 39 41 28 7 6 5 2 4 38 43 23 76 100 100 86 46 75 100 100 100 100 94 100 100 100 100 100 100 100 100
100 100 84 72 100 94 100 23 37 10 20 4 49 100 100 100 100 77 72 99 100 100 100 92 100 100 100 100 100 100 100 100
7 5 5 5 5 14 16 61 40 38 83 49 4 4 5 9 2 18 100 99 100 98 95 100 100 100 100 100 100 100 100 100
5 5 5 4 6 24 41 78 94 70 100 100 86 0 0 0 3 87 100 100 100 100 100 100 100 94 98 100 100 100 90 99
0 0 0 0 12 54 80 64 98 100 100 100 100 76 5 9 4 100 100 100 100 100 96 100 100 100 100 100 100 100 98 95
3 4 5 3 38 65 83 80 100 100 100 100 100 100 76 98 61 100 100 100 100 100 100 100 100 100 100 100 100 100 100 91
5 4 5 35 71 86 85 76 100 100 100 100 100 82 78 82 100 100 100 100 100 100 100 100 100 100 100 100 100 100 100 100
5 5 25 77 80 80 100 100 100 100 100 100 100 66 94 100 100 100 100 100 100 100 100 100 100 100 100 100 100 100 100 100
5 7 55 97 82 88 74 98 100 100 100 100 100 100 84 100 100 82 98 78 78 98 100 100 100 100 100 100 100 100 100 100
15 42 86 99 81 94 68 82 100 100 100 100 100 100 100 100 100 100 100 100 92 100 100 100 100 100 100 100 100 100 100 98
54 55 49 71 82 80 99 100 100 100 100 100 100 100 100 100 100 100 100 100 100 100 100 100 100 100 100 100 100 45 98 100
59 47 69 82 92 64 100 98 100 100 100 100 100 100 100 100 100 100 100 100 100 100 100 100 100 100 100 66 88 100 100 100
75 70 88 82 96 98 100 100 100 100 100 100 100 100 100 100 100 100 100 100 100 100 100 100 100 100 100 100 100 100 100 91
99 98 70 82 80 100 100 100 100 100 100 100 100 100 100 100 100 100 100 100 100 100 100 100 100 100 100 100 100 100 100 100
100 100 87 100 87 100 100 100 100 100 100 100 100 100 100 100 100 100 100 100 100 100 100 100 100 100 100 100 100 100 100 100
100 100 100 100 100 100 100 100 100 100 100 100 100 100 100 100 100 100 100 100 100 100 100 100 100 100 100 100 100 100 100 100
100 100 100 100 100 100 100 100 100 100 100 100 100 100 100 100 100 100 100 100 100 100 100 100 100 100 100 100 100 100 100 100

GFSFLT1_prec_cloud_105.txt.gz
Cloud_Cover
5 8 53 73 100 98 5 5 5 5 2 7 100 100 100 100 100 100 97 71 100 91 96 100 100 91 91 75 98 72 100 96
0 4 69 67 11 65 54 5 1 5 5 7 49 46 81 62 22 57 35 72 100 73 95 100 100 95 100 81 99 100 78 100
23 25 54 95 59 12 14 8 15 17 87 100 100 100 100 95 100 100 98 84 100 100 100 100 99 93 97 33 100 100 100 96
5 21 31 62 100 100 69 72 99 99 88 35 16 10 10 51 10 5 8 5 4 90 89 100 100 98 100 18 100 97 100 58
65 5 54 32 4 5 5 8 8 12 56 67 66 17 1 0 0 1 0 1 15 98 55 100 100 100 100 41 74 96 100 80
100 35 2 0 0 0 3 40 40 63 89 86 88 98 42 0 0 0 0 0 12 100 100 100 100 100 99 70 100 100 88 87
100 12 0 0 0 16 73 81 71 100 93 100 100 100 100 21 1 0 0 0 1 96 100 100 96 100 67 99 100 86 90 17
82 0 0 0 3 35 100 100 95 93 100 100 100 100 100 99 33 0 27 47 76 55 100 100 100 100 81 100 100 100 100 33
92 18 5 5 6 55 100 100 84 94 100 100 100 100 100 100 77 44 26 55 67 70 100 100 100 100 100 100 100 100 100 100
97 19 5 15 93 99 100 100 96 85 100 100 100 100 100 99 16 43 99 62 72 97 100 100 100 100 98 84 100 100 100 100
100 6 9 16 50 87 97 100 100 100 100 100 100 100 100 90 100 100 100 100 81 89 97 93 100 100 100 100 100 100 100 100
100 8 14 53 70 86 97 100 100 96 100 100 100 100 100 100 100 100 100 92 96 100 100 100 100 100 100 100 100 100 100 100
95 100 44 84 96 87 100 100 100 100 100 100 100 100 100 100 100 91 100 89 100 100 21 99 100 100 98 100 100 100 100 100
100 100 100 100 84 97 100 69 100 100 100 100 100 100 100 100 100 100 100 100 82 100 100 100 100 100 100 100 100 100 100 100
100 100 100 100 92 99 100 100 90 100 96 100 100 100 100 100 100 100 100 100 100 100 100 100 100 100 100 100 100 100 100 100
100 100 100 100 96 94 100 100 100 100 100 100 100 100 100 100 100 100 100 100 100 100 100 100 100 100 100 100 100 100 100 100
100 100 100 100 100 100 100 100 100 100 100 100 100 100 100 100 100 100 100 100 100 100 100 100 100 100 100 100 97 100 100 100
100 100 100 100 100 100 100 100 100 100 100 100 100 100 100 100 100 100 100 100 100 100 100 100 100 100 100 100 100 100 100 100
97 100 100 100 100 100 100 100 100 100 100 100 100 100 100 100 100 100 100 100 100 100 100 100 100 100 100 100 100 100 100 100

GFSFLT1_prec_cloud_108.txt.gz
Cloud_Cover
3 2 4 5 2 0 0 6 7 49 98 100 92 21 5 0 3 42 7 6 9 11 43 14 97 70 10 5 5 4 0 5
0 0 5 4 4 2 1 3 48 73 49 14 30 10 11 5 5 5 64 70 66 69 69 40 80 67 90 100 86 5 4 16
5 1 0 0 4 12 99 62 86 29 27 22 14 20 87 98 100 100 100 100 83 76 61 61 87 100 100 100 100 100 74 32
7 11 0 2 4 95 81 98 100 98 68 35 44 54 61 12 5 5 5 5 5 2 4 3 86 100 100 100 100 100 50 87
52 75 6 5 5 1 5 88 99 75 5 3 18 57 91 4 43 50 5 20 83 0 0 0 9 4 100 100 100 100 65 95
99 99 100 73 9 5 7 100 91 5 5 67 74 61 71 34 1 0 0 0 94 2 0 2 18 0 0 88 54 100 100 23
83 100 100 98 20 32 86 63 100 34 50 96 76 100 100 100 96 22 0 0 0 97 78 62 26 10 8 3 93 100 100 37
100 100 59 100 98 100 100 100 100 99 96 82 100 100 100 100 100 100 23 0 0 100 100 100 59 73 100 67 99 100 100 77
100 100 98 70 40 70 100 71 100 100 100 82 100 100 100 100 100 100 95 18 13 100 100 100 42 35 100 100 36 100 50 58
100 100 100 100 99 76 97 95 100 100 100 96 99 100 100 100 100 100 100 56 0 0 77 61 63 24 23 100 81 100 100 100
99 100 100 74 76 100 98 100 100 100 100 100 100 100 100 100 100 100 100 43 28 5 34 50 100 52 71 100 93 92 40 96
100 100 95 99 100 100 100 100 100 100 100 100 100 99 100 100 100 100 100 99 100 100 100 72 99 100 100 100 100 95 95 94
100 100 100 100 100 100 100 100 100 100 100 100 100 100 100 100 100 100 100 100 100 100 98 86 94 100 100 100 100 98 100 100
100 100 100 100 94 95 100 100 100 92 100 100 100 100 100 100 100 100 100 100 100 100 100 100 100 100 100 100 100 100 100 87
90 100 100 100 100 100 100 100 100 100 100 100 100 100 100 100 100 100 100 100 100 100 100 100 100 100 100 100 100 100 100 100
100 100 100 100 100 100 100 100 100 100 86 100 100 100 98 100 100 100 100 100 100 100 100 100 100 100 100 100 100 100 100 92
100 100 100 100 100 100 100 100 100 100 100 100 100 100 100 100 100 100 100 100 100 100 100 100 100 100 100 100 100 99 98 100
100 100 100 100 100 100 100 100 98 100 100 100 100 100 100 100 100 100 100 100 100 100 100 100 100 100 100 100 100 100 100 100
100 100 100 100 100 100 100 100 100 99 100 100 100 100 100 100 100 100 100 100 100 100 100 100 100 100 100 100 100 100 100 100

GFSFLT1_prec_cloud_111.txt.gz
Cloud_Cover
1 2 8 15 99 5 4 1 0 0 0 0 4 18 52 5 5 0 0 1 4 4 67 54 28 44 53 14 5 5 22 100
5 0 0 5 40 1 5 5 0 2 0 0 0 5 92 94 100 83 5 2 0 2 7 59 67 13 5 56 32 68 98 83
86 0 0 0 84 23 2 5 5 2 0 0 16 93 18 28 64 29 84 94 67 60 54 8 5 4 7 13 82 93 100 100
65 1 0 0 39 97 5 5 5 5 5 2 5 5 98 100 76 99 42 2 4 2 4 0 7 1 20 67 90 100 100 100
5 0 1 8 99 100 71 78 97 54 37 57 94 5 14 64 83 79 5 4 0 0 3 4 0 0 11 8 34 100 100 100
2 56 100 100 85 100 100 95 99 100 100 100 25 5 35 100 55 56 14 0 0 0 7 35 66 5 4 89 72 100 100 100
5 99 100 100 100 97 100 99 100 100 100 100 85 52 45 89 100 100 99 93 26 0 0 0 0 30 2 33 100 100 100 80
71 99 100 100 100 100 100 95 72 79 64 73 100 96 99 100 100 100 100 100 100 85 14 0 0 17 78 100 100 100 100 100
100 100 100 100 100 100 93 93 100 81 95 100 100 100 99 99 100 100 100 100 100 100 83 2 0 13 98 100 100 100 100 100
100 100 100 100 100 100 100 100 100 94 93 100 100 100 100 100 100 100 100 100 100 100 100 38 0 100 97 99 100 100 100 74
100 100 100 100 100 100 100 100 100 87 94 98 100 100 100 100 100 100 100 100 100 100 100 70 6 100 88 93 100 100 100 100
100 100 100 100 100 100 100 98 93 68 93 100 92 97 100 100 100 100 100 100 100 100 100 100 100 100 100 100 100 61 43 69
100 100 100 100 100 100 100 100 67 79 100 100 100 100 100 100 100 100 100 100 100 100 100 100 100 100 100 100 100 53 44 100
100 100 100 100 100 100 100 83 83 98 100 100 100 100 100 100 100 100 100 100 100 100 100 100 100 100 100 100 100 100 100 78
100 100 100 100 100 100 100 100 100 100 100 100 100 100 100 100 100 100 100 99 100 100 100 100 100 100 100 100 100 100 100 100
100 100 100 100 100 100 100 100 100 100 100 100 100 100 100 100 100 100 100 100 100 100 100 100 100 100 100 100 100 100 100 100
100 100 100 100 87 100 73 96 99 100 100 100 100 100 100 100 100 77 100 100 100 100 100 100 100 100 100 100 100 100 100 100
100 100 100 100 100 100 100 100 100 100 100 100 100 100 100 100 100 92 100 98 100 100 100 100 100 100 100 100 100 100 100 100
100 100 100 100 100 100 100 100 100 100 100 100 100 96 89 96 95 100 100 100 100 100 100 100 100 100 100 100 100 100 100 100

GFSFLT1_prec_cloud_114.txt.gz
Cloud_Cover
100 86 12 7 5 37 36 26 14 5 13 3 7 5 0 2 2 0 0 0 0 18 14 41 54 100 100 100 100 100 91 97
29 98 100 87 95 80 6 1 5 5 44 5 5 5 0 0 0 0 0 3 5 5 0 21 15 7 5 63 100 100 100 100
93 99 9 22 97 100 100 90 5 5 5 5 5 1 0 0 0 0 0 3 10 12 6 7 13 28 4 63 98 86 100 100
100 98 96 19 5 5 35 97 18 6 5 5 5 4 0 0 3 0 5 5 5 3 3 15 80 31 88 45 11 19 44 92
75 100 100 63 43 5 49 85 100 94 5 18 17 17 73 60 68 7 5 5 100 51 3 5 4 2 12 43 38 5 28 85
100 100 100 20 36 44 44 96 100 100 9 63 98 96 98 100 100 100 100 97 30 5 5 14 0 2 0 34 88 58 2 16
100 100 100 99 100 100 91 100 84 93 49 78 79 100 100 100 84 97 100 100 100 100 100 97 52 11 4 0 52 51 2 0
100 100 100 100 99 87 100 100 100 100 76 84 100 100 100 100 100 100 100 100 100 100 100 100 100 90 35 1 68 70 54 27
100 100 100 100 100 100 99 100 100 100 100 52 98 100 100 100 100 100 100 100 100 100 100 100 100 100 100 18 25 48 23 54
100 100 100 100 100 100 100 100 100 100 100 100 100 99 100 100 100 100 100 100 100 100 100 100 100 100 100 65 54 33 44 100
100 100 100 100 100 100 100 100 100 100 100 100 100 100 100 100 100 100 100 100 100 100 100 100 100 100 100 86 8 3 74 100
100 100 100 100 100 100 100 100 100 100 100 100 100 100 100 100 100 100 100 100 100 100 100 100 100 100 100 95 90 27 100 100
100 100 100 100 100 100 100 100 100 100 100 100 100 100 100 100 100 100 100 100 100 100 100 100 100 100 100 100 100 100 100 100
100 100 94 100 100 98 100 100 100 100 100 100 100 100 100 100 100 92 96 100 100 100 100 100 100 100 100 100 100 100 100 100
100 100 100 100 100 100 100 100 100 100 100 100 100 100 100 100 100 64 83 90 100 100 100 100 100 100 100 100 100 100 100 100
100 100 100 100 100 100 100 100 100 100 100 99 97 100 100 100 100 100 100 90 100 100 100 100 100 100 100 100 100 100 100 98
100 100 100 100 100 100 100 100 100 100 100 100 100 100 100 100 100 100 100 76 83 100 100 100 100 100 100 100 100 100 100 100
96 98 93 99 100 91 100 100 98 85 90 94 100 70 98 99 100 100 100 100 87 98 100 100 100 100 100 100 100 100 100 100
76 89 88 100 100 100 100 100 100 100 100 100 100 100 100 100 100 100 100 100 100 100 100 100 100 100 100 100 100 100 100 100

GFSFLT1_prec_cloud_117.txt.gz
Cloud_Cover
0 0 0 0 0 0 0 66 100 100 100 100 70 40 100 83 99 86 5 3 15 86 100 92 100 100 100 100 100 100 100 100
0 0 0 0 0 0 0 8 100 100 100 93 9 11 8 5 5 16 85 1 0 0 0 0 3 45 100 100 100 100 100 100
0 0 0 5 5 0 4 48 84 99 100 100 21 49 25 5 53 8 9 27 5 0 0 0 0 0 1 85 100 100 100 100
0 1 6 100 99 68 99 100 100 96 55 87 20 5 86 67 79 6 7 12 8 2 0 0 6 0 0 0 98 100 100 71
42 74 52 34 100 100 100 100 100 100 100 83 98 85 80 94 99 67 5 5 5 14 51 69 56 34 15 5 0 64 100 100
100 100 54 68 92 100 100 100 89 100 52 73 47 100 100 100 100 98 46 40 20 54 100 100 100 100 100 72 9 1 87 100
100 100 100 100 100 100 100 100 100 100 100 100 81 92 100 100 100 100 100 100 100 90 100 100 100 100 100 100 99 63 24 94
100 100 100 100 100 100 100 100 100 100 100 100 100 100 100 100 100 100 100 100 100 100 100 100 100 100 100 100 100 100 100 100
100 100 100 100 100 100 100 100 100 100 100 100 100 100 100 100 100 100 100 100 100 100 100 100 100 100 100 100 100 100 81 100
100 100 100 100 100 100 100 100 100 100 100 100 100 100 100 100 100 100 100 100 100 100 100 100 100 100 100 100 100 100 100 97
100 100 100 100 100 100 100 100 100 100 100 100 100 100 100 100 100 100 100 100 100 100 100 100 100 99 100 100 100 100 100 88
100 100 100 100 100 100 100 100 100 100 100 100 100 100 100 100 100 100 100 100 100 100 100 100 100 100 100 100 100 100 100 54
100 100 100 100 100 100 100 100 100 100 100 100 100 100 100 100 100 100 100 100 100 100 100 100 100 100 100 100 100 100 100 100
100 100 100 100 100 100 100 100 100 100 100 100 100 100 100 100 100 100 100 100 100 100 100 100 100 100 100 100 100 100 100 100
100 100 100 100 100 100 100 100 100 100 100 100 100 100 100 100 100 100 100 98 96 100 100 100 100 100 100 100 100 100 100 100
100 100 100 100 100 100 100 100 100 100 100 100 100 100 100 100 100 100 100 100 94 100 100 100 100 100 100 100 100 100 100 100
100 100 100 100 100 100 100 100 83 79 92 94 80 100 99 100 100 82 86 65 43 53 66 99 100 100 100 100 100 100 100 100
100 100 100 100 99 100 100 100 97 95 92 100 99 90 98 95 69 75 100 86 78 91 74 95 100 100 100 100 100 100 100 100
100 100 100 100 100 100 100 99 90 100 100 100 100 96 100 100 100 94 99 100 91 99 97 89 92 98 100 100 100 100 100 100

GFSFLT1_prec_cloud_120.txt.gz
Cloud_Cover
3 1 0 0 0 0 0 34 22 0 0 0 0 2 35 100 100 11 98 94 53 19 5 17 76 53 90 100 100 100 100 100
0 0 0 0 0 0 0 6 24 0 5 4 5 5 4 99 87 100 30 7 5 28 51 5 5 14 5 91 100 100 100 100
37 47 37 20 2 0 0 0 5 3 73 100 64 69 13 10 47 100 99 22 5 5 49 39 22 32 4 0 29 100 100 100
85 100 100 90 89 76 88 68 17 100 100 100 100 66 81 73 61 89 100 88 99 76 16 78 93 98 90 29 12 36 100 100
100 94 100 100 100 100 100 100 73 100 97 100 100 47 97 100 91 54 58 100 95 99 100 100 100 100 100 100 84 14 26 89
100 100 99 76 100 100 100 100 56 100 100 100 100 100 87 100 100 93 100 57 54 100 95 100 100 100 100 100 100 100 78 24
100 100 100 100 100 100 100 100 100 100 100 100 100 100 100 100 100 100 92 100 100 100 100 100 100 100 100 100 100 100 100 100
100 100 100 100 100 100 97 100 100 100 100 100 100 100 100 100 100 100 100 100 100 100 100 100 100 100 100 100 100 100 100 100
100 100 100 100 100 100 100 100 100 100 100 100 100 100 100 100 100 100 100 100 100 100 100 100 100 100 100 100 100 100 100 100
100 100 100 100 100 100 100 100 100 100 100 100 100 100 100 100 100 100 100 100 100 100 100 100 100 100 100 100 100 100 100 100
66 100 100 100 99 99 100 100 100 100 100 100 100 100 100 100 100 100 100 100 100 100 100 100 100 100 100 100 100 100 100 100
99 95 100 100 66 86 100 100 100 100 100 100 100 100 100 100 100 100 100 100 100 100 100 100 100 100 100 100 100 100 100 100
80 100 100 100 82 100 100 100 100 100 100 100 100 100 100 100 100 100 100 100 100 100 100 100 100 100 100 100 100 100 100 100
66 100 100 100 100 100 100 100 100 100 100 100 100 100 100 100 100 100 100 100 100 100 100 100 100 100 100 100 100 100 100 100
78 100 100 100 100 100 100 100 100 100 100 100 100 100 100 100 100 100 100 100 100 100 100 100 100 100 100 100 100 100 100 100
100 100 97 100 100 100 100 100 100 100 100 96 68 93 92 96 100 100 100 100 100 100 100 100 100 100 100 100 99 100 100 100
100 100 100 100 100 99 80 100 100 100 97 100 69 85 100 100 100 100 99 100 98 100 100 100 100 100 100 100 100 96 100 100
100 100 100 100 100 96 100 71 80 66 100 100 90 100 100 100 100 100 84 86 98 100 100 100 100 100 100 100 100 98 100 100
100 100 100 100 91 94 79 64 98 100 100 100 100 100 100 100 100 79 78 85 98 100 100 100 100 100 100 98 96 99 98 91

GFSFLT1_prec_cloud_123.txt.gz
Cloud_Cover
100 100 64 13 51 100 100 100 100 100 100 97 51 22 0 0 0 0 0 0 0 0 4 5 34 20 100 100 100 100 100 100
100 100 97 66 32 48 92 100 100 100 100 73 6 0 0 0 0 0 0 0 2 5 5 5 5 62 95 5 95 100 100 100
96 64 75 40 13 41 100 100 100 100 100 94 42 30 30 8 5 4 5 43 50 28 50 61 84 51 63 32 4 6 99 95
100 100 95 85 98 95 99 100 100 100 100 100 82 10 99 86 73 5 14 54 72 83 100 100 100 100 100 100 87 34 25 100
100 100 100 96 63 91 56 56 100 100 100 100 66 79 63 99 100 82 59 64 97 100 100 100 100 100 100 100 100 100 100 50
92 100 81 100 100 62 11 100 49 97 100 99 88 41 87 100 100 100 100 98 100 100 100 100 100 100 100 100 100 100 100 100
100 100 100 100 100 100 100 84 96 59 88 97 74 99 100 100 100 100 100 100 100 100 100 100 100 100 100 100 100 100 100 100
100 100 100 100 96 78 96 92 100 100 100 100 100 100 100 100 100 100 100 100 100 100 100 100 100 100 100 100 100 100 100 100
100 91 77 78 84 84 75 100 95 100 99 100 100 100 100 100 100 100 100 100 100 100 100 100 100 100 100 100 100 100 100 100
100 100 100 100 96 100 100 100 100 100 100 100 100 100 100 100 100 100 100 100 100 100 100 100 100 100 100 100 100 100 100 100
100 79 91 100 89 100 100 100 100 100 100 100 100 100 100 100 100 100 100 100 100 100 100 100 100 100 100 100 100 100 100 100
42 49 56 87 77 100 100 100 100 100 100 100 100 100 100 100 100 100 100 100 100 100 100 100 100 100 100 100 100 100 100 100
5 15 48 100 100 100 100 100 100 100 100 100 100 100 100 100 100 100 100 100 100 100 100 100 100 100 100 100 100 100 100 100
5 42 100 100 100 100 100 100 100 100 100 100 100 100 100 100 100 100 100 100 100 100 100 100 100 100 100 100 100 100 100 100
11 97 100 100 100 100 100 100 89 99 100 100 100 100 100 100 100 90 100 100 100 100 100 100 100 100 100 100 100 100 100 100
91 100 100 100 100 100 96 98 96 95 98 95 100 95 100 93 100 100 97 89 100 100 100 100 100 100 100 100 100 100 100 100
99 100 100 100 100 100 87 84 92 100 100 96 92 100 100 95 100 100 100 72 94 94 100 100 100 100 98 100 100 100 100 100
100 100 100 100 99 100 80 25 68 79 100 99 100 100 100 100 100 100 98 90 99 98 94 96 96 76 97 100 98 100 100 100
100 100 100 92 90 96 97 20 29 55 95 100 99 100 100 100 100 100 100 91 92 99 96 100 97 90 95 100 90 84 84 100

GFSFLT1_prec_cloud_126.txt.gz
Cloud_Cover
56 99 100 100 100 100 100 100 100 60 94 100 100 100 100 100 94 46 8 4 3 0 0 1 4 11 36 50 100 100 100 100
100 100 100 100 100 100 100 100 100 100 93 81 100 100 100 61 1 0 0 7 36 19 5 2 0 0 10 52 62 83 96 71
100 100 100 100 100 100 100 95 67 99 100 99 91 100 100 93 34 2 16 34 49 62 100 96 100 69 45 29 20 94 35 96
25 10 25 49 64 46 12 5 5 39 55 95 99 81 67 99 100 50 26 67 100 100 100 100 100 100 100 100 100 86 43 8
50 22 40 64 10 31 18 5 62 5 18 28 76 8 67 19 50 27 39 73 79 93 100 100 100 100 100 100 100 100 100 94
86 100 100 100 74 56 64 80 68 55 82 74 55 64 60 99 20 6 54 26 79 100 100 100 100 100 100 100 100 100 100 100
100 99 98 99 99 91 74 91 78 91 82 83 95 91 90 62 96 48 88 100 99 96 100 100 100 100 100 100 100 100 100 100
89 94 98 100 99 96 84 76 72 83 97 94 99 100 96 99 80 100 100 100 98 100 100 100 100 100 100 100 100 100 100 100
96 90 88 86 66 82 90 73 80 83 100 100 100 100 100 100 100 100 100 100 100 100 100 100 100 100 100 100 100 100 100 100
100 91 89 88 70 100 100 98 100 100 100 100 100 100 100 100 100 100 100 100 100 100 100 100 100 100 100 100 100 100 100 100
84 45 38 96 100 100 100 100 100 100 100 100 100 100 100 100 100 100 100 100 100 100 100 100 100 100 100 100 100 100 100 100
76 14 16 66 97 100 100 100 100 100 100 100 100 100 100 100 100 100 100 100 100 100 100 100 100 100 100 100 100 100 100 100
42 5 22 53 100 100 100 100 100 100 100 100 100 100 100 100 100 100 100 100 100 100 100 100 100 100 100 100 100 100 100 100
48 15 28 92 100 100 100 100 100 96 92 89 100 100 98 99 100 100 100 100 100 100 100 100 100 100 100 100 100 100 100 100
70 57 73 100 100 100 100 99 89 56 7 14 100 100 100 100 100 100 100 100 100 96 100 100 100 100 100 100 100 100 100 100
92 72 92 100 100 100 100 93 66 61 52 6 85 100 100 100 100 100 100 100 87 100 88 100 98 100 100 100 100 100 100 100
100 100 100 100 100 100 100 88 44 5 5 5 5 87 100 100 100 100 100 100 84 97 100 100 62 8 85 99 100 100 100 100
96 99 100 100 100 100 100 79 27 5 44 25 7 97 99 100 100 100 100 99 78 99 92 99 88 31 58 74 97 100 100 100
95 100 100 100 100 100 100 55 11 69 63 71 74 98 100 100 100 100 100 100 100 100 100 100 96 41 52 70 92 81 88 95

GFSFLT1_prec_cloud_132.txt.gz
Cloud_Cover
5 5 5 5 4 1 5 5 1 4 1 4 5 5 4 5 57 100 100 100 100 100 100 100 92 27 4 0 0 0 1 0
5 5 5 5 5 1 5 0 0 0 0 5 5 19 34 5 67 100 100 100 100 100 100 100 100 100 97 17 3 0 0 0
5 5 12 5 5 5 5 3 0 0 0 0 0 0 4 5 5 4 16 56 99 100 93 80 99 94 91 100 100 100 23 0
5 5 5 5 10 15 34 5 4 0 0 0 0 0 0 0 6 0 0 1 2 96 90 100 100 100 100 100 100 100 100 100
5 5 51 33 60 32 15 71 4 5 4 0 0 0 1 4 6 4 56 52 34 24 12 100 100 100 100 100 100 100 100 100
100 100 100 100 26 41 7 21 5 46 44 29 20 18 26 3 5 5 5 4 36 85 53 100 100 100 100 100 100 100 100 100
100 100 100 100 100 87 56 5 0 1 93 100 87 73 88 86 94 100 86 100 93 79 27 75 100 100 100 100 100 100 100 100
100 100 100 100 100 93 5 5 3 8 79 100 100 100 100 100 99 100 100 100 100 100 100 100 100 100 100 100 100 100 100 100
100 100 100 100 65 5 5 0 2 47 100 100 100 100 100 100 100 100 100 100 100 100 100 100 100 100 100 100 100 100 100 100
100 94 5 5 5 4 4 4 26 95 100 100 100 100 100 100 100 100 100 100 100 100 100 100 100 100 100 100 100 100 100 100
10 5 5 5 4 4 27 85 100 100 100 100 100 100 100 100 100 100 100 98 93 88 68 100 100 100 100 100 100 100 100 100
12 7 5 5 3 4 15 93 100 100 100 100 100 100 100 100 100 100 100 91 99 97 98 100 100 100 100 100 100 100 100 100
21 5 5 5 5 5 16 83 100 100 75 100 100 100 90 69 56 71 20 82 96 100 100 100 100 100 100 100 100 100 100 100
5 10 5 5 5 5 23 60 99 98 100 100 33 6 5 5 5 10 5 50 100 100 100 100 100 100 100 100 100 100 100 100
6 27 8 15 5 12 34 62 100 89 98 95 45 30 92 5 5 5 5 48 99 100 100 100 100 100 100 100 100 100 100 100
80 95 63 5 5 24 55 69 38 93 88 62 8 16 13 5 5 45 54 62 98 100 100 100 100 100 100 100 100 100 100 66
100 99 100 5 42 69 77 79 72 12 5 5 5 5 5 5 43 72 65 90 100 100 100 100 100 100 100 100 100 100 100 100
23 100 91 37 86 96 100 94 90 64 5 5 19 9 16 5 33 93 93 100 100 100 100 100 100 100 100 100 100 100 100 100
61 10 24 44 92 100 100 100 81 18 63 62 86 57 73 56 59 100 100 100 100 100 99 100 100 100 100 100 100 100 100 100